Location: Pella
(41.4080°N, 92.9160°W)
Time: 12:29:50
(UTC-05:00)

Iridium 91 - Visible Passes

Search period start: 26 May 2018 00:00
Search period end: 05 June 2018 00:00
Orbit: 776 x 779 km, 86.4° (Epoch: 25 May)

Date Brightness Start Highest point End Pass type
(mag) Time Alt. Az. Time Alt. Az. Time Alt. Az.
27 May 8.2 05:02:43 10° NNE 05:06:47 22° ENE 05:10:49 10° SE visible
28 May 8.6 04:30:46 10° NE 04:32:53 12° ENE 04:34:59 10° E visible
30 May 7.5 05:02:22 10° NNE 05:07:02 32° E 05:11:39 10° SE visible
31 May 8.3 04:29:43 10° NNE 04:33:13 18° ENE 04:36:43 10° ESE visible
02 Jun 6.8 05:02:13 10° N 05:07:14 45° E 05:12:13 10° SSE visible
03 Jun 7.8 04:29:13 10° NNE 04:33:31 25° ENE 04:37:47 10° SE visible
04 Jun 8.3 03:56:57 10° NE 03:59:40 14° ENE 04:02:22 10° ESE visible
